Weather History for KNUQ - June, 2014

Change the Weather History Date:

Thursday, June 5, 2014

  Actual Average Record
Temperature  
Mean Temperature 66 °F 65 °F  
Max Temperature 75 °F 75 °F 92 °F (2002)
Min Temperature 57 °F 55 °F 45 °F (1956)
Degree Days  
Heating Degree Days 0    
Month to date heating degree days 2  
Since 1 June heating degree days 2  
Since 1 July heating degree days 1782  
Cooling Degree Days 1    
Month to date cooling degree days 3  
Year to date cooling degree days 90  
Since 1 June cooling degree days 3  
Growing Degree Days 15 (Base 50)    
Moisture  
Dew Point 55 °F    
Average Humidity 72    
Maximum Humidity 86    
Minimum Humidity 57    
Precipitation  
Precipitation 0.00 in 0.01 in 0.24 in (1993)
Month to date precipitation 0.00 0.04  
Year to date precipitation 5.18 9.57  
Since 1 July precipitation 6.44  
Sea Level Pressure  
Sea Level Pressure 29.85 in    
Wind  
Wind Speed 6 mph (NNW)    
Max Wind Speed 17 mph    
Max Gust Speed 21 mph    
Visibility 9 miles    
Events      
T = Trace of Precipitation, MM = Missing Value Source: NWS Daily Summary

Daily Weather History Graph

Daily Weather History Graph

Search for Another Location

Airport or City:

Trip Planner

Search our weather history database for the weather conditions in past years. The results will help you decide how hot, cold, wet, or windy it might be!

Date:

Astronomy

Jun. 05, 2014 Rise Set
Actual Time 5:47 AM PDT 8:25 PM PDT
Civil Twilight 5:17 AM PDT 8:56 PM PDT
Nautical Twilight 4:38 AM PDT 9:35 PM PDT
Astronomical Twilight 3:56 AM PDT 10:17 PM PDT
Moon 1:02 PM PDT (6/5) 1:03 AM PDT (6/5)
Length of Visible Light 15h 39m
Length of Day
14h 38m
Waxing Crescent, 49% of the Moon is Illuminated
Jun 5
Waxing Crescent
Jun 5
First Quarter
Jun 12
Full
Jun 19
Last Quarter
Jun 27
New

Hourly Weather History & Observations

Time (PDT) Temp. Dew Point Humidity Pressure Visibility Wind Dir Wind Speed Gust Speed Precip Events Conditions
12:56 AM 59.0 °F 53.1 °F 81% 29.86 in 10.0 mi West 4.6 mph - N/A   Clear
1:36 AM 57.2 °F 53.6 °F 88% 29.85 in 10.0 mi WNW 3.5 mph - N/A   Partly Cloudy
1:56 AM 57.9 °F 53.1 °F 84% 29.86 in 10.0 mi Calm Calm - N/A   Mostly Cloudy
2:56 AM 57.9 °F 53.1 °F 84% 29.86 in 10.0 mi Calm Calm - N/A   Overcast
3:56 AM 57.9 °F 53.1 °F 84% 29.86 in 10.0 mi North 4.6 mph - N/A   Overcast
4:56 AM 57.9 °F 53.1 °F 84% 29.86 in 10.0 mi North 5.8 mph - N/A   Overcast
5:56 AM 57.9 °F 53.1 °F 84% 29.87 in 7.0 mi Calm Calm - N/A   Overcast
6:35 AM 57.2 °F 53.6 °F 88% 29.86 in 8.0 mi Calm Calm - N/A   Mostly Cloudy
6:56 AM 57.9 °F 53.1 °F 84% 29.88 in 8.0 mi Calm Calm - N/A   Scattered Clouds
7:56 AM 61.0 °F 54.0 °F 78% 29.88 in 8.0 mi Calm Calm - N/A   Clear
8:56 AM 63.0 °F 54.0 °F 72% 29.88 in 9.0 mi Calm Calm - N/A   Clear
9:56 AM 66.0 °F 55.0 °F 68% 29.88 in 9.0 mi North 4.6 mph - N/A   Clear
10:56 AM 71.1 °F 55.9 °F 59% 29.87 in 10.0 mi NNE 5.8 mph - N/A   Clear
11:56 AM 73.9 °F 57.0 °F 55% 29.86 in 10.0 mi NNW 9.2 mph - N/A   Clear
12:56 PM 73.9 °F 57.0 °F 55% 29.86 in 10.0 mi NNW 10.4 mph - N/A   Clear
1:56 PM 73.0 °F 57.0 °F 57% 29.85 in 10.0 mi NW 11.5 mph - N/A   Clear
2:56 PM 72.0 °F 55.9 °F 57% 29.84 in 10.0 mi NW 13.8 mph - N/A   Clear
3:56 PM 72.0 °F 55.0 °F 55% 29.83 in 10.0 mi NNW 13.8 mph - N/A   Clear
4:56 PM 71.1 °F 55.9 °F 59% 29.82 in 10.0 mi NNW 12.7 mph 17.3 mph N/A   Clear
5:56 PM 70.0 °F 55.0 °F 59% 29.81 in 10.0 mi NNW 9.2 mph - N/A   Clear
6:56 PM 68.0 °F 55.0 °F 63% 29.82 in 10.0 mi NNW 11.5 mph - N/A   Clear
7:56 PM 64.9 °F 55.0 °F 70% 29.83 in 9.0 mi NW 6.9 mph - N/A   Clear
8:56 PM 64.0 °F 55.9 °F 75% 29.83 in 10.0 mi NNW 5.8 mph - N/A   Clear
9:56 PM 62.1 °F 55.0 °F 78% 29.84 in 9.0 mi NNW 8.1 mph - N/A   Clear
10:56 PM 60.1 °F 55.0 °F 83% 29.85 in 9.0 mi NNW 5.8 mph - N/A   Clear
11:56 PM 60.1 °F 54.0 °F 80% 29.85 in 9.0 mi Calm Calm - N/A   Clear